Regional Weather Roundup
Issued by NWS

Home | Current Version | Previous Version | Graphics & Text | Print | Product List | Glossary On
Versions: 1 2 3 4 5 6 7 8 9 10 11 12 13 14 15 16 17 18 19 20 21 22 23 24 25 26 27 28 29 30 31 32 33 34 35 36 37 38 39 40 41 42 43 44 45 46 47 48 49 50
000
ASUS43 KTOP 240208
RWRKS

WEATHER ROUNDUP FOR KANSAS
NATIONAL WEATHER SERVICE GOODLAND KS
900 PM CDT THU OCT 23 2014

NOTE:  "FAIR" INDICATES FEW OR NO CLOUDS BELOW 12,000 FEET WITH NO
SIGNIFICANT WEATHER AND/OR OBSTRUCTIONS TO VISIBILITY.

KSZ001>006-013>018-027>032-041>047-240300-
NORTHWEST KANSAS

CITY           SKY/WX    TMP DP  RH WIND       PRES   REMARKS
GOODLAND       CLEAR     56  52  86 S12       30.08S
HAYS           PTCLDY    61  54  77 S8        30.05F
HILL CITY      CLEAR     61  56  83 SW6       30.05S
RUSSELL        PTCLDY    60  57  89 S9        30.04S
$$

KSZ061>065-074>080-084>089-240300-
SOUTHWEST KANSAS

CITY           SKY/WX    TMP DP  RH WIND       PRES   REMARKS
DODGE CITY     CLEAR     62  57  83 S9        30.08S
ELKHART          N/A     62  54  75 E8          N/A
GARDEN CITY    PTCLDY    61  53  75 SE5       30.08F
GREAT BEND     PTCLDY    61  55  82 S7        30.06F
LIBERAL        PTCLDY    66  55  68 E7        30.10S
PRATT          PTCLDY    64  57  77 S5        30.09S
$$

KSZ066>073-081>083-090>101-240300-
SOUTHEAST KANSAS

CITY           SKY/WX    TMP DP  RH WIND       PRES   REMARKS
CHANUTE        MOCLDY    60  58  92 SE12      30.10R
COFFEYVILLE    PTCLDY    57  56  96 S8        30.11R
HUTCHINSON     PTCLDY    61  57  87 E3        30.07R
MEDICINE LODGE   N/A     66  60  81 E6        30.07R
NEWTON         MOCLDY    63  55  77 SE6       30.10R
PARSONS        PTCLDY    58  57  97 SE5       30.12R
WICHITA INTL   PTCLDY    64  58  80 S6        30.06S
WICHITA JABRA  CLEAR     61  59  93 SE3       30.07R
WICHITA MCCONL CLEAR     65  64  97 SE6       30.07S
WINFIELD       PTCLDY    66  60  81 SE6       30.08R
$$

KSZ007>012-019>026-033>040-048>060-102>105-240300-
NORTHEAST KANSAS

CITY           SKY/WX    TMP DP  RH WIND       PRES   REMARKS
CONCORDIA      MOCLDY    59  55  87 S6        30.04S
EMPORIA        MOCLDY    60  58  92 S9        30.08S
LAWRENCE       CLEAR     57  55  93 SE5       30.08S FOG
MANHATTAN      PTCLDY    61  58  90 CALM      30.05S
MARYSVILLE     MOCLDY    59  54  82 S3        30.04S
OLATHE IND     CLEAR     57  56  96 S6        30.09S FOG
OLATHE EXE     MOCLDY    59  58  96 S5        30.08S
SALINA         PTCLDY    63  59  87 S10       30.05S
TOPEKA BILLARD CLEAR     62  60  93 SE5       30.07S
TOPEKA FORBES  CLEAR     60  58  92 S8        30.07S
$$



USA.gov is the U.S. government's official web portal to all federal, state and local government web resources and services.